Regional Weather Roundup
Issued by NWS Wakefield, VA

Home | Current Version | Previous Version | Graphics & Text | Print | Product List | Glossary On
Versions: 1 2 3 4 5 6 7 8 9 10 11 12 13 14 15 16 17 18 19 20 21 22 23 24 25 26 27 28 29 30 31 32 33 34 35 36 37 38 39 40 41 42 43 44 45 46 47 48 49 50
000
ASUS41 KAKQ 040014
RWRAKQ

REGIONAL WEATHER ROUNDUP
NATIONAL WEATHER SERVICE WAKEFIELD VA
800 PM EDT THU SEP 03 2015

Note: "fair" indicates few or no clouds below 12,000 feet with no
significant weather and/or obstructions to visibility. * = Denotes
station may not report precipitation (e.g., rain,snow,etc.),
thunder or fog.

VAZ042-051-052>054-056-040100-
NORTHERN VIRGINIA

CITY           SKY/WX    TMP DP  RH WIND       PRES   REMARKS
WASH NATIONAL  MOCLDY    81  71  71 E3        29.87R
DULLES         MOCLDY    83  70  64 NW7       29.88R
FORT BELVOIR   MOCLDY    80  69  69 VRB1      29.86S
QUANTICO       MOCLDY    84  71  65 CALM      29.87R
FREDERICKSBRG* PTCLDY    81  71  70 CALM      29.86R
STAFFORD*      PTCLDY    77  71  81 NW5       29.91S
WARRENTON      MOCLDY    79  74  83 NW6       29.88R
CULPEPER*      MOCLDY    77  72  83 NW3       29.90R
MANASSAS*      CLEAR     79  73  83 CALM      29.87R
LEESBURG*      MOCLDY    82  72  69 W3        29.90R
WINCHESTER     CLOUDY    77  68  73 SW3       29.92F
FRONT ROYAL*   CLOUDY    70  70 100 S3        29.92R
LURAY*         TSTM      75  68  78 E3        29.93S
$$

VAZ048-049-060>072-079>083-040100-
CENTRAL AND SOUTH CENTRAL VIRGINIA

CITY           SKY/WX    TMP DP  RH WIND       PRES   REMARKS
RICHMOND       PTCLDY    87  69  54 W3        29.87R
CHESTERFIELD*  FAIR      81  64  57 CALM      29.89R
PETERSBURG*    PTCLDY    79  78  98 NW3       29.88R
HANOVER        PTCLDY    78  73  84 CALM      29.89R
TAPPAHANNOCK*  PTCLDY    79  71  78 CALM      29.87R
QUINTON*       FAIR      78  75  91 N3        29.86R
CHARLOTTSVILLE PTCLDY    80  70  71 S3        29.90R
GORDONSVILLE*  FAIR      78  73  84 CALM      29.89R
ORANGE*        MOCLDY    79  70  73 CALM      29.91R
LOUISA*        PTCLDY    79  70  73 CALM      29.88S
BUMPASS*       FAIR      76  73  89 CALM      29.88R
FARMVILLE*     MOCLDY    84  67  57 NW3       29.89R
CREWE*         FAIR     N/A N/A N/A CALM      29.89R
FORT PICKETT*  FAIR      80  71  75 CALM      29.89R
CHASE CITY*    FAIR      81  74  81 CALM      29.89S
CLARKSVILLE*   FAIR      77  73  88 CALM      29.89R
SOUTH HILL*    MOCLDY    78  74  88 CALM      29.94R
LAWRENCEVILLE* FAIR      79  75  89 CALM      29.88R
EMPORIA*       PTCLDY    77  73  88 CALM      29.89R
$$

VAZ088>098-040100-
SOUTHEAST VIRGINIA

CITY           SKY/WX    TMP DP  RH WIND       PRES   REMARKS
NORFOLK        CLEAR     82  67  60 CALM      29.86R
VIRGINIA BEACH PTCLDY    83  69  62 CALM      29.86R
NORFOLK NAVAL  PTCLDY    79  68  69 SE3       29.87R
WEST POINT*    PTCLDY    83  72  69 CALM      29.87R
SALUDA*        FAIR      78  72  79 CALM      29.86R
NEWPORT NEWS   CLEAR     79  69  71 CALM      29.86R
LANGLEY AFB    CLEAR     80  68  67 SE3       29.85R
FORT EUSTIS    CLEAR     82  72  73 VRB2      29.84R
WILLIAMSBURG*  CLEAR     82  75  78 CALM      29.87R
HR EXEC AP*      N/A     73  70  88 CALM      29.88R
FRANKLIN*      CLEAR     78  74  87 CALM      29.87R
WAKEFIELD      PTCLDY    79  72  79 CALM      29.87R HAZE
$$

VAZ020-022-025-037-045-040100-
WEST CENTRAL AND SOUTHWEST VIRGINIA

CITY           SKY/WX    TMP DP  RH WIND       PRES   REMARKS
STAUNTON*      MOCLDY    82  66  58 CALM      29.96S
WAYNESBORO*    FAIR      79  67  66 CALM      29.96S
HOT SPRINGS VA CLOUDY    70  63  78 NW7       30.10R
LYNCHBURG      PTCLDY    78  67  68 CALM      29.94R
DANVILLE       PTCLDY    78  69  73 CALM      29.91R
SOUTH BOSTON*  FAIR      79  71  77 CALM      29.90R
MARTINSVILLE   CLOUDY    80  67  65 CALM      29.95S
ROANOKE        MOCLDY    81  66  60 NW3       29.96R
BLACKSBURG     PTCLDY    74  69  85 CALM      30.04S
DUBLIN*        CLOUDY    77  66  67 NW3       30.03R
MARION*        PTCLDY    74  67  78 CALM      30.08R
HILLSVILLE*    MOCLDY    76  65  68 NW6       30.05R
RICHLANDS*     FAIR      75  31  19 NW5       30.07R
WISE*          PTCLDY    75  59  57 N5        30.09R
ABINGDON*      MOCLDY    78  66  66 CALM      30.02S
$$

MDZ021>025-VAZ099-100-040100-
SOUTHERN MARYLAND AND THE DELMARVA PENINSULA

CITY           SKY/WX    TMP DP  RH WIND       PRES   REMARKS
PATUXENT RIVER MOCLDY    77  72  84 CALM      29.86R
BAY BRIDGE APT   N/A     81  70  69 CALM      29.86R
LEONARDTOWN    NOT AVBL
DOVER          CLEAR     85  72  66 W3        29.83R
GEORGETOWN     PTCLDY    80  68  66 SW5       29.85S
EASTON         NOT AVBL
CAMBRIDGE      PTCLDY    81  70  69 W5        29.85R
SALISBURY      MOCLDY    79  74  84 CALM      29.85R
OCEAN CITY     PTCLDY    81  71  71 CALM      29.85R
WALLOPS ISLAND PTCLDY    79  74  84 SW5       29.85S
ACCOMACK*      CLEAR     73  63  68 CALM      29.83S
$$

NCZ012>017-030>032-040100-
NORTH CENTRAL AND EASTERN NORTH CAROLINA

CITY           SKY/WX    TMP DP  RH WIND       PRES   REMARKS
ROANOKE RAPIDS FAIR      77  73  88 CALM      29.88R
RALEIGH        CLOUDY    79  71  76 CALM      29.90R
ELIZABETH CITY PTCLDY    75  70  84 CALM      29.87R
AHOSKIE*       MOCLDY    76  73  88 CALM      29.87S FOG
EDENTON*       PTCLDY    79  73  80 CALM      29.86S
CURRITUCK*     PTCLDY    79  69  73 CALM      29.87S
KILL DEVIL HLS PTCLDY    80  70  72 CALM      29.86S
MANTEO         PTCLDY    81  73  76 S9        29.87S
CAPE HATTERAS  PTCLDY    78  71  79 W5        29.88S
TARBORO*       FAIR      78  75  91 CALM      29.88S
GOLDSBORO      CLEAR     80  73  79 CALM      29.86F
WASHINGTON     PTCLDY    77  71  82 CALM      29.87S
GREENVILLE     CLEAR     77  75  94 CALM      29.90S
NEW BERN       PTCLDY    78  72  81 CALM      29.89R
WILMINGTON     CLOUDY    76  69  79 SW5       29.89R
$$

VAZ048-040100-
ELSEWHERE

CITY           SKY/WX    TMP DP  RH WIND       PRES   REMARKS
HARRISBURG PA  MOCLDY    83  69  62 CALM      29.87R
BALTIMORE      MOCLDY    83  70  64 CALM      29.86R
ANNAPOLIS      PTCLDY    82  74  76 CALM      29.86R
ANDREWS AFB    MOCLDY    77  70  78 CALM      29.87R
PHILADELPHIA   PTCLDY    90  63  40 N5        29.84R
HENDERSON NC   CLOUDY    78  68  70 CALM      29.90S
GREENSBORO     MOCLDY    83  64  52 CALM      29.92R
ROCKY MOUNT    PTCLDY    79  70  74 SE3       29.88R
$$

VAZ100-040100-
MARINE

STATION/POSITION TIME  TEMP    WIND        PRES    WAVE   SWELL
                       AIR SEA DIR/SP/G            HT/PER HT/PER
                 (UTC) (F)     (DEG/KT/KT) (MB)    (FT/S) (FT/S)
BRANDYWINE LGT   2300   80 77  190/  6/  7 1010.4R
CAPE MAY NJ      2300   80 81  140/  2/  3 1010.0R
LEWES DE         2300   84 78  230/  5/  6 1010.3R
15NM E FENWICK I 2350   80 80  210/ 10/ 12 1010.6R   1/13   2/13
OCEAN-CITY-INLET 2300   81 79  210/  6/  8 1009.9S
THOMAS POINT MD  2300   83 81  230/  6/  6 1011.2R
GOOSES REEF MD   0000      81                N/A
COVE POINT MD    2300   83      CALM  /  1 1011.4R
SOLOMONS ISLAND  2300      83                N/A
BISHOPS HEAD MD  2300   84 84  280/  2/  3 1009.7S
PINEY POINT MD   2329          160/  2/  3   N/A
POTOMAC MD       0000   84 83  200/  2/  4 1009.8R   0
CAMBRIDGE MD     2300   84 82  250/  6/  8 1009.8R
LEWISETTA VA     2300   86 82  210/  3/  4 1010.4R
RAPPAHANNOCK LGT 2300          170/  5/  5 1011.3S
STINGRAY PT      2300   83 82  190/  6/  8 1011.1S   0
YORK RVR RNG VA  2300   83     170/  7/  7 1010.2F
JAMESTOWN VA     0000   84 83  170/  2/  2   N/A
DOMINION TERM VA 2300   86      80/  2/  4 1010.7F
KIPTOPEKE VA     2300      80  200/  3/  4   N/A
CHES BAY BRIDGE  2300   81 80   70/  5/  5 1010.4F
CHESAPEAKE LGHT  2300   81     210/  4/  5 1011.5F
WILLOUBY STN VA  2300   84      30/  1/  2 1011.7F
CAPE HENRY BUOY  2328      81                N/A     1/13
1ST LANDING BUOY 0000      80              1010.9R   1
CAPE CHARLES BUO 2326      80                N/A     1/ 9   2/ 9
OFFSHORE WE BUOY 2311      81                N/A     1/13   2/13
64NM E OF VA BCH 2350   79 79  260/  6/  8 1010.8R   1/ 8   2/ 8
DUCK PIER NC     2300   82 81  150/  5/  6 1010.3F
44100 DUCK FRF   2324      82                N/A     1/12
44056 DUCK FRF   2311      81                N/A     1/13
OREGON INLET NC  2300   81 83  190/  5/  6 1011.3F
HATTERAS NC      2300   82 83  210/  2/  4 1011.4S
DIAMOND SHLS NC  2350   81 86  270/  4/  6 1011.9S   1/12   2/12
CAPE LOOKOUT NC  0000   80     240/  4/  4 1011.7F
$$


USA.gov is the U.S. government's official web portal to all federal, state and local government web resources and services.